• In Germany
  • List of Countries
  • For 7 days
  • Water Temperature
  • Satellite Maps
  • Weather Map
  • Weather Widgets
  • user-avatar
    Login

    Hourly Weather Nakhchivan

    Today, 24 July, Monday

    Time Temperature Precipitation Wind Pressure Humidity
    00:00 +30°C° 0 mm 3 mps 684 mmHg 37%
    01:00 +29°C° 0 mm 3 mps 684 mmHg 39%
    02:00 +28°C° 0 mm 3 mps 684 mmHg 40%
    03:00 +28°C° 0 mm 3 mps 683 mmHg 41%
    04:00 +28°C° 0 mm 3 mps 683 mmHg 42%
    05:00 +28°C° 0 mm 3 mps 683 mmHg 42%
    06:00 +28°C° 0 mm 2 mps 683 mmHg 42%
    07:00 +29°C° 0 mm 2 mps 684 mmHg 38%
    08:00 +31°C° 0 mm 2 mps 684 mmHg 34%
    09:00 +33°C° 0 mm 3 mps 684 mmHg 30%
    10:00 +34°C° 0 mm 3 mps 684 mmHg 27%
    11:00 +36°C° 0 mm 3 mps 684 mmHg 24%
    12:00 +37°C° 0 mm 4 mps 684 mmHg 21%
    13:00 +38°C° 0 mm 4 mps 683 mmHg 20%
    14:00 +39°C° 0 mm 5 mps 683 mmHg 19%
    15:00 +40°C° 0 mm 5 mps 683 mmHg 19%
    16:00 +39°C° 0 mm 5 mps 683 mmHg 21%
    17:00 +37°C° 0 mm 5 mps 682 mmHg 23%
    18:00 +37°C° 0 mm 5 mps 682 mmHg 25%
    19:00 +35°C° 0 mm 4 mps 682 mmHg 31%
    20:00 +33°C° 0 mm 4 mps 683 mmHg 36%
    21:00 +30°C° 0 mm 3 mps 683 mmHg 42%
    22:00 +29°C° 0 mm 3 mps 683 mmHg 45%
    23:00 +29°C° 0 mm 2 mps 683 mmHg 48%

    Tomorrow, 25 July, Tuesday

    Time Temperature Precipitation Wind Pressure Humidity
    00:00 +28°C° 0 mm 2 mps 683 mmHg 51%
    01:00 +27°C° 0 mm 2 mps 683 mmHg 53%
    02:00 +27°C° 0 mm 2 mps 683 mmHg 54%
    03:00 +26°C° 0 mm 2 mps 683 mmHg 55%
    04:00 +26°C° 0 mm 1 mps 683 mmHg 54%
    05:00 +26°C° 0 mm 1 mps 683 mmHg 52%
    06:00 +27°C° 0 mm 1 mps 683 mmHg 51%
    07:00 +28°C° 0 mm 1 mps 683 mmHg 46%
    08:00 +30°C° 0 mm 2 mps 683 mmHg 41%
    09:00 +31°C° 0 mm 2 mps 683 mmHg 35%
    10:00 +32°C° 0 mm 2 mps 683 mmHg 32%
    11:00 +35°C° 0 mm 2 mps 683 mmHg 28%
    12:00 +36°C° 0 mm 3 mps 683 mmHg 25%
    13:00 +37°C° 0 mm 3 mps 683 mmHg 23%
    14:00 +37°C° 0 mm 3 mps 682 mmHg 22%
    15:00 +38°C° 0 mm 3 mps 682 mmHg 20%
    16:00 +37°C° 0.1 mm 3 mps 682 mmHg 21%
    17:00 +37°C° 0.1 mm 3 mps 682 mmHg 23%
    18:00 +36°C° 0.1 mm 3 mps 681 mmHg 24%
    19:00 +35°C° 0.1 mm 3 mps 682 mmHg 29%
    20:00 +33°C° 0.1 mm 3 mps 682 mmHg 33%
    21:00 +30°C° 0.1 mm 2 mps 683 mmHg 38%
    22:00 +30°C° 0 mm 2 mps 683 mmHg 40%
    23:00 +29°C° 0 mm 2 mps 683 mmHg 42%

    Day after tomorrow, 26 July, Wednesday

    Time Temperature Precipitation Wind Pressure Humidity
    00:00 +28°C° 0 mm 2 mps 683 mmHg 44%
    01:00 +28°C° 0 mm 2 mps 683 mmHg 45%
    02:00 +27°C° 0 mm 2 mps 683 mmHg 47%
    03:00 +27°C° 0 mm 2 mps 683 mmHg 48%
    04:00 +27°C° 0 mm 2 mps 683 mmHg 47%
    05:00 +27°C° 0 mm 1 mps 683 mmHg 46%
    06:00 +27°C° 0 mm 1 mps 683 mmHg 45%
    07:00 +29°C° 0 mm 1 mps 684 mmHg 40%
    08:00 +30°C° 0 mm 1 mps 684 mmHg 36%
    09:00 +32°C° 0 mm 1 mps 684 mmHg 31%
    10:00 +33°C° 0 mm 1 mps 684 mmHg 27%
    11:00 +35°C° 0 mm 2 mps 684 mmHg 24%
    12:00 +37°C° 0 mm 2 mps 684 mmHg 20%
    13:00 +37°C° 0 mm 2 mps 683 mmHg 19%
    14:00 +38°C° 0 mm 3 mps 683 mmHg 17%
    15:00 +39°C° 0 mm 3 mps 683 mmHg 16%
    16:00 +38°C° 0 mm 3 mps 683 mmHg 17%
    17:00 +38°C° 0 mm 4 mps 683 mmHg 18%
    18:00 +37°C° 0 mm 4 mps 683 mmHg 18%
    19:00 +36°C° 0 mm 4 mps 683 mmHg 23%
    20:00 +34°C° 0 mm 3 mps 684 mmHg 27%
    21:00 +31°C° 0 mm 2 mps 684 mmHg 32%
    22:00 +30°C° 0 mm 2 mps 684 mmHg 34%
    23:00 +30°C° 0 mm 2 mps 684 mmHg 36%

    27 July, Thursday

    Time Temperature Precipitation Wind Pressure Humidity
    00:00 +29°C° 0 mm 2 mps 685 mmHg 39%
    01:00 +28°C° 0 mm 2 mps 685 mmHg 40%
    02:00 +28°C° 0 mm 2 mps 685 mmHg 41%
    03:00 +27°C° 0 mm 2 mps 685 mmHg 42%
    04:00 +27°C° 0 mm 2 mps 685 mmHg 41%
    05:00 +28°C° 0 mm 2 mps 685 mmHg 40%
    06:00 +28°C° 0 mm 1 mps 686 mmHg 39%
    07:00 +29°C° 0 mm 1 mps 686 mmHg 35%
    08:00 +31°C° 0 mm 1 mps 686 mmHg 30%
    09:00 +33°C° 0 mm 1 mps 686 mmHg 26%
    10:00 +35°C° 0 mm 2 mps 686 mmHg 23%
    11:00 +36°C° 0 mm 2 mps 686 mmHg 21%
    12:00 +38°C° 0 mm 2 mps 686 mmHg 18%
    13:00 +39°C° 0 mm 2 mps 685 mmHg 17%
    14:00 +39°C° 0 mm 3 mps 685 mmHg 16%
    15:00 +40°C° 0 mm 3 mps 685 mmHg 14%
    16:00 +40°C° 0 mm 3 mps 685 mmHg 15%
    17:00 +39°C° 0 mm 3 mps 685 mmHg 16%
    18:00 +40°C° 0 mm 4 mps 685 mmHg 16%
    19:00 +37°C° 0 mm 3 mps 685 mmHg 20%
    20:00 +35°C° 0 mm 3 mps 685 mmHg 24%
    21:00 +32°C° 0 mm 2 mps 686 mmHg 28%
    22:00 +32°C° 0 mm 2 mps 686 mmHg 29%
    23:00 +31°C° 0 mm 2 mps 686 mmHg 31%

    28 July, Friday

    Time Temperature Precipitation Wind Pressure Humidity
    00:00 +30°C° 0 mm 2 mps 686 mmHg 32%
    01:00 +30°C° 0 mm 2 mps 686 mmHg 33%
    02:00 +29°C° 0 mm 2 mps 686 mmHg 34%
    03:00 +29°C° 0 mm 1 mps 686 mmHg 35%
    04:00 +29°C° 0 mm 1 mps 686 mmHg 34%
    05:00 +29°C° 0 mm 1 mps 686 mmHg 33%
    06:00 +29°C° 0 mm 1 mps 686 mmHg 33%
    07:00 +31°C° 0 mm 1 mps 687 mmHg 29%
    08:00 +33°C° 0 mm 1 mps 687 mmHg 25%
    09:00 +35°C° 0 mm 1 mps 687 mmHg 21%
    10:00 +36°C° 0 mm 1 mps 687 mmHg 19%
    11:00 +39°C° 0 mm 2 mps 687 mmHg 17%
    12:00 +40°C° 0 mm 2 mps 686 mmHg 15%
    13:00 +41°C° 0 mm 2 mps 686 mmHg 14%
    14:00 +43°C° 0 mm 3 mps 686 mmHg 13%
    15:00 +44°C° 0 mm 3 mps 686 mmHg 12%
    16:00 +44°C° 0 mm 3 mps 686 mmHg 12%
    17:00 +43°C° 0 mm 3 mps 686 mmHg 12%
    18:00 +43°C° 0 mm 3 mps 686 mmHg 13%
    19:00 +40°C° 0 mm 3 mps 686 mmHg 15%
    20:00 +38°C° 0 mm 3 mps 686 mmHg 18%
    21:00 +36°C° 0 mm 2 mps 686 mmHg 21%
    22:00 +35°C° 0 mm 2 mps 687 mmHg 22%
    23:00 +34°C° 0 mm 2 mps 687 mmHg 23%

    29 July, Saturday

    Time Temperature Precipitation Wind Pressure Humidity
    00:00 +32°C° 0 mm 2 mps 687 mmHg 24%
    01:00 +32°C° 0 mm 2 mps 687 mmHg 24%
    02:00 +31°C° 0 mm 2 mps 687 mmHg 24%
    03:00 +30°C° 0 mm 2 mps 687 mmHg 25%
    04:00 +31°C° 0 mm 1 mps 687 mmHg 24%
    05:00 +31°C° 0 mm 1 mps 687 mmHg 24%
    06:00 +31°C° 0 mm 1 mps 687 mmHg 24%
    07:00 +33°C° 0 mm 1 mps 688 mmHg 21%
    08:00 +35°C° 0 mm 1 mps 688 mmHg 18%
    09:00 +37°C° 0 mm 1 mps 688 mmHg 16%
    10:00 +39°C° 0 mm 1 mps 688 mmHg 14%
    11:00 +40°C° 0 mm 2 mps 688 mmHg 12%
    12:00 +41°C° 0 mm 2 mps 688 mmHg 11%
    13:00 +42°C° 0 mm 2 mps 687 mmHg 10%
    14:00 +43°C° 0 mm 2 mps 687 mmHg 9%
    15:00 +44°C° 0 mm 3 mps 687 mmHg 8%
    16:00 +44°C° 0 mm 3 mps 687 mmHg 9%
    17:00 +43°C° 0 mm 3 mps 687 mmHg 9%
    18:00 +43°C° 0 mm 3 mps 687 mmHg 9%
    19:00 +40°C° 0 mm 3 mps 687 mmHg 12%
    20:00 +38°C° 0 mm 2 mps 687 mmHg 16%
    21:00 +36°C° 0 mm 2 mps 687 mmHg 19%
    22:00 +35°C° 0 mm 2 mps 687 mmHg 21%
    23:00 +34°C° 0 mm 2 mps 687 mmHg 23%
    Show more